Flag for Japan Weather past 2 weeks in Matsuyama, Japan

Now
72 °F

Overcast.


Feels Like: 75 °F
Forecast: 47 / 75 °F
Wind: 6 mph from Southwest

Location: Matsuyama


UV Index: 7 (High)

Visibility: 13 mi


Pressure: 30.16 "Hg

Humidity: 22%

Dew point: 31 °F

Location of MatsuyamaLocation

Historic Weather in Matsuyama

°F

Matsuyama temperature yesterday

Maximum temperature yesterday: 69 °F (at 2:00 PM)
Minimum temperature yesterday: 48 °F (at 6:00 AM)
Average temperature yesterday: 58 °F

Past Weeks' High & Low Weather Summary

 TemperatureHumidityPressure
High72 °F (Apr 17, 12:00 PM)95% (Apr 13, 8:00 AM)30.22 "Hg (Apr 13, 8:00 AM)
Low44 °F (Apr 15, 5:00 AM)17% (Apr 14, 1:00 PM)29.86 "Hg (Apr 21, 3:00 PM)
Average58 °F61%30.03 "Hg
* Reported Apr 9 3:00 PM — Apr 24 3:00 PM, Matsuyama, Weather by CustomWeather, © 2014

Note: Actual official high and low records may vary slightly from our data, if they occured in-between our weather recording intervals... More about our weather records

Advertising

Historic Weather Conditions — Data for Previous 24 hours

 ConditionsComfort  
Time TempWeatherWind HumidityBarometerVisibility
3:00 PM
Apr 24
72 °FOvercast.6 mph22%30.16 "Hg12 mi
2:00 PM72 °FMild.9 mph36%30.17 "HgN/A
1:00 PM71 °FMild.9 mph38%30.19 "HgN/A
12:00 PM70 °FOvercast.9 mph33%30.20 "Hg12 mi
11:00 AM71 °FMild.14 mph17%30.21 "HgN/A
10:00 AM66 °FMild.5 mph39%30.22 "HgN/A
9:00 AM61 °FOvercast.3 mph41%30.22 "Hg12 mi
8:00 AM57 °FRefreshingly cool.1 mph48%30.21 "HgN/A
7:00 AM53 °FCool.1 mph54%30.20 "HgN/A
6:00 AM50 °FOvercast.3 mph56%30.19 "Hg9 mi
5:00 AM50 °FCool.2 mph58%30.17 "HgN/A
4:00 AM50 °FCool.2 mph64%30.16 "HgN/A
3:00 AM51 °FClear.6 mph60%30.15 "Hg9 mi
2:00 AM51 °FCool.3 mph61%30.14 "HgN/A
1:00 AM52 °FCool.1 mph59%30.14 "HgN/A
12:00 AM53 °FCool.3 mph54%30.14 "HgN/A
11:00 PM
Apr 23
54 °FCool.5 mph55%30.13 "HgN/A
10:00 PM55 °FCool.8 mph57%30.10 "HgN/A
9:00 PM57 °FClear.5 mph56%30.09 "Hg12 mi
8:00 PM60 °FRefreshingly cool.5 mph54%30.06 "HgN/A
7:00 PM63 °FMild.3 mph42%30.04 "HgN/A
6:00 PM64 °FClear.6 mph40%30.04 "Hg12 mi
5:00 PM65 °FMild.5 mph37%30.02 "HgN/A
4:00 PM66 °FMild.7 mph36%30.01 "HgN/A
Weather by CustomWeather, © 2014

See weather overview